sat.trackr.live / text

‹ back to catalog

STARLINK-37208

NORAD 68523 · 2026-068R

PAYLOAD ACTIVE UNKNOWN

§ Identity

Operator
Country
US
Launch date
2026-03-30
Launch site
AFETR
Launch vehicle
Mass (kg)
RCS (m²)

Purposes: comms

External: N2YO · Heavens-Above · Gunter

§ Orbital elements

Epoch: 2026-09-19T14:27:53.452800Z

Period
93.85 min
Inclination
53.1584°
Eccentricity
0.0001318
Mean motion
15.34403475 rev/d
Perigee alt
461.8 km
Apogee alt
463.6 km
Semi-major
6,840.8 km
B*
3.5438e-4
RAAN
303.6025°
Arg perigee
91.3317°
Mean anomaly
268.7836°
Rev number
2,670

§ Raw data

STARLINK-372081 68523U 26068R   26262.60270200  .00011617  00000+0  35438-3 0  99922 68523  53.1584 303.6025 0001318  91.3317 268.7836 15.34403475 26709

JSON: /api/v1/satellites/68523 · /tle

For live sub-satellite position, see the globe view (requires WebGL).

§ Visibility from observer

Set your observer location to see the next 7 days of passes ≥ 10°. The values pass through the URL so the page stays shareable.

No JS? Fill the form by hand. The geolocation button needs JavaScript.